Pontiac, MI

6:26 AM EDT on April 26, 2017 (GMT -0400)
Oakland County International

Weather History for KPTK - November, 2012

Change the Weather History Date:

Sunday, November 18, 2012

  Actual Average Record
Temperature  
Mean Temperature 42 °F -  
Max Temperature 52 °F 43 °F 71 °F (2016)
Min Temperature 30 °F 31 °F 12 °F (2014)
Degree Days  
Heating Degree Days 23    
Moisture  
Dew Point 37 °F    
Average Humidity 88    
Maximum Humidity 100    
Minimum Humidity 45    
Precipitation  
Precipitation 0.00 in - - ()
Sea Level Pressure  
Sea Level Pressure 30.51 in    
Wind  
Wind Speed 5 mph (ESE)    
Max Wind Speed 9 mph    
Max Gust Speed -    
Visibility 4 miles    
Events Fog    
Averages and records for this station are not official NWS values.
T = Trace of Precipitation, MM = Missing Value Source: NWS Daily Summary

Daily Weather History Graph

Daily Weather History Graph

Search for Another Location

Airport or City:

Trip Planner

Search our weather history database for the weather conditions in past years. The results will help you decide how hot, cold, wet, or windy it might be!

Date:

Astronomy

Nov. 18, 2012 Rise Set
Actual Time 7:29 AM EST 5:07 PM EST
Civil Twilight 6:58 AM EST 5:38 PM EST
Nautical Twilight 6:24 AM EST 6:12 PM EST
Astronomical Twilight 5:51 AM EST 6:46 PM EST
Moon 11:54 AM EST (11/18) 10:28 PM EST (11/18)
Length of Visible Light 10h 39m
Length of Day
9h 38m
Waxing Crescent, 30% of the Moon is Illuminated
Nov 18
Waxing Crescent
Nov 20
First Quarter
Nov 28
Full
Dec 6
Last Quarter
Dec 13
New

Hourly Weather History & Observations

Time (EST) Temp. Windchill Dew Point Humidity Pressure Visibility Wind Dir Wind Speed Gust Speed Precip Events Conditions
12:12 AM 37.4 °F 32.8 °F 37.4 °F 100% 30.54 in 2.0 mi ESE 5.8 mph - N/A   Scattered Clouds
12:38 AM 37.4 °F 33.8 °F 35.6 °F 93% 30.54 in 3.0 mi ESE 4.6 mph - N/A   Clear
12:53 AM 37.0 °F 34.5 °F 36.0 °F 96% 30.56 in 2.5 mi East 3.5 mph - N/A   Clear
1:04 AM 37.4 °F 32.8 °F 35.6 °F 93% 30.53 in 1.8 mi ESE 5.8 mph - N/A   Partly Cloudy
1:10 AM 37.4 °F 32.1 °F 37.4 °F 100% 30.53 in 0.8 mi ESE 6.9 mph - N/A   Mist
1:15 AM 37.4 °F 32.8 °F 37.4 °F 100% 30.53 in 0.2 mi ESE 5.8 mph - N/A Fog Fog
1:53 AM 39.0 °F 36.8 °F 39.0 °F 100% 30.54 in 0.2 mi East 3.5 mph - N/A Fog Fog
2:53 AM 39.0 °F 36.8 °F 39.0 °F 100% 30.55 in 0.2 mi East 3.5 mph - N/A Fog Fog
3:53 AM 39.9 °F 35.1 °F 39.9 °F 100% 30.53 in 0.2 mi ESE 6.9 mph - N/A Fog Fog
4:53 AM 39.9 °F 36.7 °F 39.9 °F 100% 30.53 in 0.5 mi ESE 4.6 mph - N/A Fog Fog
5:53 AM 39.9 °F - 39.9 °F 100% 30.54 in 0.5 mi Calm Calm - N/A Fog Fog
6:15 AM 39.2 °F 37.0 °F 39.2 °F 100% 30.52 in 0.2 mi ESE 3.5 mph - N/A Fog Fog
6:26 AM 39.2 °F 35.9 °F 39.2 °F 100% 30.52 in 0.2 mi ESE 4.6 mph - N/A Fog Fog
6:53 AM 39.0 °F - 39.0 °F 100% 30.55 in 0.2 mi Calm Calm - N/A Fog Fog
7:40 AM 39.2 °F 37.0 °F 39.2 °F 100% 30.52 in 0.2 mi ESE 3.5 mph - N/A Fog Fog
7:53 AM 39.0 °F 36.8 °F 39.0 °F 100% 30.55 in 0.2 mi ESE 3.5 mph - N/A Fog Fog
8:53 AM 39.0 °F 34.0 °F 39.0 °F 100% 30.53 in 0.2 mi East 6.9 mph - N/A Fog Fog
9:17 AM 39.2 °F 35.9 °F 39.2 °F 100% 30.51 in 0.5 mi East 4.6 mph - N/A Fog Fog
9:44 AM 39.2 °F 37.0 °F 39.2 °F 100% 30.51 in 1.2 mi East 3.5 mph - N/A   Overcast
9:53 AM 39.9 °F 36.7 °F 39.9 °F 100% 30.55 in 1.8 mi East 4.6 mph - N/A   Overcast
10:02 AM 39.2 °F - 39.2 °F 100% 30.51 in 2.0 mi Calm Calm - N/A   Overcast
10:32 AM 39.2 °F 35.9 °F 39.2 °F 100% 30.52 in 3.0 mi East 4.6 mph - N/A   Mostly Cloudy
10:53 AM 42.1 °F 40.2 °F 39.9 °F 92% 30.54 in 3.0 mi ESE 3.5 mph - N/A   Mostly Cloudy
11:00 AM 42.8 °F 40.1 °F 39.2 °F 87% 30.51 in 3.0 mi ENE 4.6 mph - N/A   Mostly Cloudy
11:40 AM 44.6 °F 43.1 °F 39.2 °F 81% 30.49 in 5.0 mi ENE 3.5 mph - N/A   Haze
11:53 AM 46.0 °F 42.5 °F 39.0 °F 76% 30.51 in 6.0 mi East 6.9 mph - N/A   Haze
12:53 PM 48.0 °F - 37.9 °F 68% 30.49 in 8.0 mi SE 6.9 mph - N/A   Scattered Clouds
1:53 PM 51.1 °F - 37.9 °F 61% 30.47 in 9.0 mi SSE 5.8 mph - N/A   Partly Cloudy
2:53 PM 52.0 °F - 30.9 °F 45% 30.45 in 10.0 mi SE 9.2 mph - N/A   Partly Cloudy
3:53 PM 51.1 °F - 30.9 °F 46% 30.45 in 10.0 mi ESE 8.1 mph - N/A   Partly Cloudy
4:53 PM 48.0 °F - 30.9 °F 52% 30.45 in 10.0 mi East 5.8 mph - N/A   Partly Cloudy
5:53 PM 45.0 °F 42.6 °F 30.9 °F 58% 30.46 in 10.0 mi East 4.6 mph - N/A   Scattered Clouds
6:53 PM 43.0 °F 40.3 °F 32.0 °F 65% 30.47 in 10.0 mi ESE 4.6 mph - N/A   Scattered Clouds
7:53 PM 42.1 °F 40.2 °F 33.1 °F 70% 30.47 in 10.0 mi ESE 3.5 mph - N/A   Scattered Clouds
8:53 PM 39.0 °F 36.8 °F 33.1 °F 79% 30.46 in 10.0 mi SE 3.5 mph - N/A   Scattered Clouds
9:53 PM 34.0 °F - 30.0 °F 85% 30.45 in 8.0 mi Calm Calm - N/A Fog Shallow Fog
10:53 PM 32.0 °F - 30.0 °F 92% 30.45 in 5.0 mi Calm Calm - N/A   Partly Cloudy
11:53 PM 30.2 °F - 30.2 °F 100% 30.41 in 5.0 mi Calm Calm - N/A   Partly Cloudy